Hermiston, OR

7:50 AM PST on February 14, 2016 (GMT -0800)
Hermiston Municipal

Weather History for KHRI - April, 2013

Change the Weather History Date:

Wednesday, April 10, 2013

  Actual Average Record
Temperature  
Mean Temperature 57 °F -  
Max Temperature 66 °F 64 °F 80 °F (1985)
Min Temperature 46 °F 37 °F 22 °F (1929)
Degree Days  
Heating Degree Days 8    
Growing Degree Days 7 (Base 50)    
Moisture  
Dew Point 38 °F    
Average Humidity 53    
Maximum Humidity 67    
Minimum Humidity 40    
Precipitation  
Precipitation 0.00 in - - ()
Sea Level Pressure  
Sea Level Pressure 30.07 in    
Wind  
Wind Speed 12 mph (SW)    
Max Wind Speed 31 mph    
Max Gust Speed 50 mph    
Visibility 10 miles    
Events Rain    
Averages and records for this station are not official NWS values.
T = Trace of Precipitation, MM = Missing Value Source: NWS Daily Summary

Daily Weather History Graph

Daily Weather History Graph

Search for Another Location

Airport or City:

Trip Planner

Search our weather history database for the weather conditions in past years. The results will help you decide how hot, cold, wet, or windy it might be!

Date:

Astronomy

Apr. 10, 2013 Rise Set
Actual Time 6:19 AM PDT 7:37 PM PDT
Civil Twilight 5:48 AM PDT 8:08 PM PDT
Nautical Twilight 5:11 AM PDT 8:45 PM PDT
Astronomical Twilight 4:32 AM PDT 9:25 PM PDT
Moon 6:16 AM PDT (4/10) 8:22 PM PDT (4/10)
Length of Visible Light 14h 19m
Length of Day
13h 18m
New Moon, 0% of the Moon is Illuminated
Apr 10
New Moon
Apr 18
First Quarter
Apr 25
Full
May 2
Last Quarter
May 9
New

Hourly Weather History & Observations

Time (PDT) Temp. Dew Point Humidity Pressure Visibility Wind Dir Wind Speed Gust Speed Precip Events Conditions
12:53 AM 50.0 °F 34.0 °F 54% 30.19 in 10.0 mi South 8.1 mph - N/A   Clear
1:53 AM 48.0 °F 34.0 °F 58% 30.17 in 10.0 mi SSW 8.1 mph - N/A   Clear
2:53 AM 48.0 °F 35.1 °F 61% 30.16 in 10.0 mi South 5.8 mph - N/A   Overcast
3:53 AM 48.0 °F 36.0 °F 63% 30.14 in 10.0 mi South 9.2 mph - N/A   Clear
4:53 AM 50.0 °F 37.0 °F 61% 30.13 in 10.0 mi SSW 10.4 mph - N/A   Mostly Cloudy
5:53 AM 50.0 °F 37.0 °F 61% 30.12 in 10.0 mi South 5.8 mph - N/A   Overcast
6:53 AM 51.1 °F 37.9 °F 61% 30.11 in 10.0 mi SSW 6.9 mph - N/A   Overcast
7:53 AM 53.1 °F 39.0 °F 59% 30.09 in 10.0 mi SSW 4.6 mph - N/A   Mostly Cloudy
8:53 AM 55.9 °F 39.0 °F 53% 30.06 in 10.0 mi SW 11.5 mph - N/A   Partly Cloudy
9:53 AM 59.0 °F 39.9 °F 49% 30.02 in 10.0 mi WSW 6.9 mph - N/A   Mostly Cloudy
10:53 AM 60.1 °F 41.0 °F 49% 29.97 in 10.0 mi Calm Calm - N/A   Scattered Clouds
11:53 AM 62.1 °F 42.1 °F 48% 29.95 in 10.0 mi Variable 3.5 mph - N/A   Clear
12:53 PM 60.1 °F 48.9 °F 67% 29.97 in 10.0 mi West 21.9 mph 31.1 mph 0.00 in Rain Light Rain
1:53 PM 66.0 °F 44.1 °F 45% 29.98 in 9.0 mi West 29.9 mph 49.5 mph 0.00 in   Partly Cloudy
2:53 PM 66.0 °F 42.1 °F 42% 29.97 in 10.0 mi West 27.6 mph 46.0 mph N/A   Scattered Clouds
3:53 PM 66.0 °F 41.0 °F 40% 29.98 in 10.0 mi WSW 31.1 mph 46.0 mph N/A   Partly Cloudy
4:53 PM 64.0 °F 39.9 °F 41% 29.99 in 10.0 mi West 24.2 mph 38.0 mph N/A   Clear
5:53 PM 62.1 °F 37.9 °F 41% 30.01 in 10.0 mi West 26.5 mph 42.6 mph N/A   Clear
6:53 PM 57.9 °F 35.1 °F 42% 30.02 in 10.0 mi West 27.6 mph 40.3 mph N/A   Clear
7:53 PM 54.0 °F 35.1 °F 49% 30.07 in 10.0 mi WSW 23.0 mph 38.0 mph N/A   Clear
8:53 PM 52.0 °F 35.1 °F 53% 30.09 in 10.0 mi West 24.2 mph 33.4 mph N/A   Clear
9:53 PM 50.0 °F 35.1 °F 57% 30.12 in 10.0 mi WSW 19.6 mph 26.5 mph N/A   Clear
10:53 PM 48.9 °F 34.0 °F 56% 30.14 in 10.0 mi WSW 16.1 mph 25.3 mph N/A   Clear
11:53 PM 46.9 °F 34.0 °F 61% 30.16 in 10.0 mi WSW 11.5 mph 20.7 mph N/A   Clear